[[{"header":{"parameterUnit":"m.s-1","parameterCategory":1,"la1":30.2991,"la2":30.254,"lo1":-89.0895,"lo2":-89.0444,"dy":0.0017,"dx":0.0017,"nx":28,"ny":28,"refTime":"2025-07-12T21:00:00:Z","depth":0,"parameterNumber":2,"parameterNumberName":"U-component_of_WINDS"},"data":[0,0,0,0,0,0,0,0,0,0,0,0,0,0,0,0,0,0,0,0,0,0,0,0,0,0,0,0,0,0,0,0,0,0,0,0,0,0,0,0,0,0,0,0,0,0,0,0,0,0,0,0,0,0,0,0,0,0,1.1422,1.1423,0,1.1562,1.1564,1.1565,1.1567,1.1565,1.1563,1.1561,1.171,1.1716,1.1721,0,0,0,0,0,0,0,0,0,0,0,0,0,1.116,1.1165,1.1422,1.1424,1.1425,1.1562,1.1564,1.1566,1.1567,1.1565,1.1563,1.1561,1.1708,1.1715,1.1722,0,0,0,0,0,0,0,0,0,0,0,0,0,1.1284,1.1166,1.1422,1.1442,1.1445,1.1562,1.1564,1.1566,1.1567,1.1565,1.1562,1.1559,1.1706,1.1714,1.1723,1.1829,0,0,1.1749,1.1752,0,0,0,0,0,0,0,0,1.1277,1.1294,1.1437,1.1441,1.1445,1.1544,1.1526,1.1655,1.1568,1.1521,1.1561,1.1558,1.1658,1.167,1.1702,1.1836,1.1843,1.1749,1.1755,1.1758,1.1761,0,0,0,0,0,0,0,1.1269,1.1288,1.1478,1.144,1.1444,1.1446,1.1461,1.1551,1.1603,1.1525,1.1526,1.1542,1.1659,1.1694,1.1706,1.1845,1.1749,1.1757,1.1762,1.1765,1.2074,1.2077,0,0,0,0,0,0,1.1255,1.1281,1.1473,1.1482,1.1353,1.1453,1.147,1.1515,1.1602,1.1613,1.1544,1.1541,1.1681,1.1696,1.1711,1.1842,1.1758,1.1766,1.1771,1.2071,1.2075,1.2078,0,0,0,0,0,0,1.125,1.1272,1.1467,1.1381,1.1406,1.146,1.1512,1.1519,1.1554,1.1616,1.1626,1.157,1.1679,1.1699,1.18,1.1847,1.177,1.1778,1.2067,1.2072,1.2076,1.2104,0,0,0,0,0,0,1.1242,1.127,1.131,1.1382,1.1411,1.1552,1.1514,1.1524,1.1568,1.1566,1.1643,1.1653,1.1679,1.1787,1.1808,1.1857,1.1784,1.2063,1.2069,1.2075,1.2099,1.2109,1.2117,0,0,0,0,0,1.1233,1.1313,1.1312,1.1335,1.1462,1.1555,1.1571,1.1598,1.1572,1.1613,1.1653,1.1651,1.1838,1.1797,1.1821,1.1873,1.206,1.2068,1.2074,1.2095,1.2107,1.2117,0,0,0,0,0,0,1.1247,1.1323,1.1323,1.1428,1.1485,1.1555,1.1608,1.161,1.1676,1.1671,1.1703,1.172,1.182,1.1857,1.181,1.1981,1.1946,1.1958,1.1954,1.1966,1.1975,1.1964,1.1791,0,0,0,0,0,1.1262,1.133,1.1393,1.1481,1.1509,1.1553,1.1595,1.161,1.1671,1.1695,1.1742,1.1803,1.1875,1.1922,1.1992,1.2104,1.2121,1.2152,1.2161,1.2168,1.2178,1.2241,1.2255,1.2101,1.2101,1.2101,0,0,1.1295,1.1345,1.1386,1.1485,1.153,1.1601,1.1574,1.165,1.1703,1.1707,1.1805,1.1842,1.1911,1.2017,1.2067,1.2051,1.2225,1.2177,1.2182,1.2189,1.2249,1.2264,1.2277,1.2106,1.2105,1.2104,0,0,1.139,1.1434,1.1512,1.1558,1.1627,1.1656,1.1675,1.1744,1.1768,1.1866,1.1871,1.1936,1.206,1.2109,1.215,1.2265,1.2265,1.2287,1.2335,1.2395,1.2408,1.2419,1.246,1.2474,1.2297,1.2297,1.2297,0,1.1423,1.1528,1.1553,1.1629,1.1673,1.1678,1.1758,1.1802,1.1891,1.1922,1.1902,1.2058,1.2105,1.2223,1.2251,1.2284,1.2308,1.2278,1.2403,1.2415,1.2425,1.2465,1.2481,1.2299,1.2299,1.2299,1.2298,0,1.1565,1.1638,1.1693,1.1777,1.1827,1.1905,1.1943,1.1991,1.2002,1.2033,1.2133,1.219,1.2272,1.2301,1.2313,1.2421,1.2409,1.2396,1.2362,1.2442,1.248,1.2495,1.2302,1.2301,1.2301,1.23,0,0,1.1674,1.177,1.179,1.1828,1.1904,1.1962,1.2041,1.2119,1.216,1.2221,1.2289,1.2393,1.2382,1.2429,1.2447,1.2499,1.2587,1.248,1.2482,1.2499,1.2711,1.272,1.2738,1.2588,1.2591,1.2593,1.2705,0,1.1778,1.1916,1.194,1.2062,1.213,1.2136,1.2205,1.226,1.2291,1.2356,1.2391,1.2465,1.2444,1.2472,1.2525,1.2565,1.263,1.2557,1.2652,1.2656,1.2635,1.2757,1.2768,1.2871,1.272,1.2723,1.2725,0,1.1918,1.1981,1.2109,1.2176,1.2206,1.2267,1.2341,1.2401,1.2464,1.2484,1.2536,1.2548,1.2631,1.2592,1.2708,1.2658,1.2699,1.2725,1.2729,1.274,1.2695,1.2772,1.2904,1.292,1.2748,1.2746,1.2745,0,1.1986,1.2103,1.2194,1.2227,1.2307,1.235,1.2386,1.2446,1.2492,1.2557,1.2587,1.2661,1.2703,1.2761,1.2793,1.2761,1.2907,1.2871,1.2927,1.2926,1.2958,1.2955,1.3099,1.2983,1.2983,1.2982,1.2982,0,1.21,1.2178,1.2225,1.2282,1.237,1.2398,1.2484,1.252,1.2573,1.2638,1.2648,1.2709,1.2747,1.2814,1.2839,1.2932,1.2951,1.297,1.2976,1.2969,1.2967,1.2996,1.299,1.2986,1.2986,1.2985,1.2984,0,1.219,1.2225,1.2325,1.2392,1.2411,1.2473,1.2532,1.2588,1.2619,1.2701,1.2721,1.2771,1.285,1.2887,1.2986,1.3003,1.3109,1.311,1.3087,1.3089,1.3143,1.3138,1.3311,1.3336,1.3203,1.3204,1.3205,0,1.2261,1.2321,1.2394,1.2437,1.2474,1.2543,1.2589,1.2619,1.2667,1.2744,1.2791,1.2869,1.2934,1.306,1.3107,1.3182,1.3185,1.3241,1.3197,1.3188,1.3187,1.3183,1.3189,1.3249,1.325,1.3251,1.3252,0,1.2383,1.2397,1.2462,1.2534,1.2588,1.2647,1.2704,1.2739,1.2778,1.2832,1.2912,1.2962,1.3062,1.314,1.3219,1.3258,1.3262,1.3266,1.3283,1.3277,1.3261,1.3271,1.3109,1.3262,1.3261,1.326,1.326,1.3259,1.2466,1.252,1.258,1.2652,1.2698,1.2751,1.2807,1.2845,1.2911,1.2993,1.3008,1.3093,1.3155,1.3261,1.3302,1.337,1.3358,1.3382,1.3389,1.3394,1.3397,1.325,1.3385,1.3385,1.3385,1.3384,1.3384,0,1.2589,1.2628,1.2694,1.2773,1.2831,1.2828,1.2891,1.294,1.3014,1.3071,1.3134,1.3226,1.3303,1.3354,1.3432,1.3477,1.3481,1.3496,1.3494,1.3503,1.3404,1.3382,1.3492,1.3492,1.3492,1.3492,1.3492,1.3492,1.266,1.275,1.2772,1.2886,1.2924,1.3006,1.3043,1.3093,1.3138,1.324,1.3303,1.3335,1.3391,1.3473,1.3543,1.3556,1.3585,1.3601,1.3614,1.3521,1.351,1.3499,1.3478,1.3606,1.3607,1.3707,1.3708,1.3708]},{"header":{"parameterUnit":"m.s-1","parameterCategory":1,"la1":30.2991,"la2":30.254,"lo1":-89.0895,"lo2":-89.0444,"dy":0.0017,"dx":0.0017,"nx":28,"ny":28,"refTime":"2025-07-12T21:00:00:Z","depth":0,"parameterNumber":3,"parameterNumberName":"V-component_of_WINDS"},"data":[0,0,0,0,0,0,0,0,0,0,0,0,0,0,0,0,0,0,0,0,0,0,0,0,0,0,0,0,0,0,0,0,0,0,0,0,0,0,0,0,0,0,0,0,0,0,0,0,0,0,0,0,0,0,0,0,0,0,1.6645,1.6645,0,1.6643,1.6643,1.6643,1.6634,1.6634,1.6633,1.6633,1.6627,1.6627,1.6627,0,0,0,0,0,0,0,0,0,0,0,0,0,1.6637,1.6637,1.6645,1.6645,1.6645,1.6643,1.6643,1.6643,1.6634,1.6634,1.6633,1.6633,1.6627,1.6627,1.6627,0,0,0,0,0,0,0,0,0,0,0,0,0,1.6638,1.6637,1.6645,1.6641,1.664,1.6643,1.6643,1.6643,1.6634,1.6634,1.6633,1.6633,1.6627,1.6627,1.6627,1.6633,0,0,1.6627,1.6627,0,0,0,0,0,0,0,0,1.6638,1.6638,1.6641,1.6641,1.6641,1.6638,1.6637,1.6639,1.6634,1.6636,1.6633,1.6633,1.6631,1.6631,1.6631,1.6633,1.6632,1.6627,1.6627,1.6627,1.6627,0,0,0,0,0,0,0,1.6638,1.6638,1.6644,1.6641,1.6641,1.6637,1.6637,1.6638,1.6635,1.6636,1.6635,1.6635,1.6631,1.6631,1.663,1.6632,1.6627,1.6627,1.6627,1.6627,1.6634,1.6634,0,0,0,0,0,0,1.6639,1.6638,1.6644,1.6644,1.6639,1.6637,1.6637,1.6639,1.6635,1.6634,1.6636,1.6635,1.6631,1.663,1.663,1.6634,1.6627,1.6627,1.6627,1.6634,1.6634,1.6634,0,0,0,0,0,0,1.6639,1.664,1.6644,1.6641,1.6641,1.6638,1.664,1.6639,1.664,1.6635,1.6634,1.6637,1.663,1.663,1.6631,1.6634,1.6627,1.6627,1.6634,1.6634,1.6634,1.6643,0,0,0,0,0,0,1.6639,1.664,1.6644,1.6641,1.6642,1.6648,1.664,1.664,1.664,1.6639,1.6635,1.6634,1.663,1.6631,1.6632,1.6633,1.6627,1.6633,1.6634,1.6634,1.6643,1.6644,1.6644,0,0,0,0,0,1.6638,1.6647,1.6644,1.6645,1.6647,1.6648,1.6648,1.6644,1.664,1.6643,1.6639,1.6635,1.6633,1.6632,1.6632,1.6634,1.6633,1.6634,1.6634,1.6642,1.6643,1.6644,0,0,0,0,0,0,1.6649,1.6646,1.6643,1.6651,1.665,1.6647,1.665,1.6646,1.6645,1.6644,1.6638,1.6637,1.6639,1.6636,1.6635,1.6637,1.6632,1.6633,1.6638,1.664,1.664,1.6641,1.6627,0,0,0,0,0,1.6653,1.6656,1.6652,1.6659,1.6659,1.6654,1.6655,1.6652,1.665,1.6649,1.6645,1.6642,1.6641,1.664,1.6639,1.6642,1.6639,1.6643,1.6644,1.6644,1.6645,1.6642,1.6643,1.6635,1.6635,1.6635,0,0,1.666,1.6658,1.6661,1.6661,1.666,1.6661,1.6654,1.6657,1.6656,1.6649,1.665,1.6647,1.6642,1.6644,1.6644,1.6642,1.6646,1.6645,1.6646,1.6645,1.6643,1.6643,1.6644,1.6636,1.6636,1.6636,0,0,1.6673,1.6673,1.6678,1.6676,1.6673,1.667,1.667,1.6667,1.6665,1.6665,1.6659,1.6657,1.6656,1.6652,1.665,1.6656,1.6651,1.6656,1.6661,1.6658,1.6659,1.6659,1.6659,1.666,1.6656,1.6656,1.6656,0,1.6681,1.6684,1.668,1.6682,1.6681,1.6674,1.6676,1.6674,1.6671,1.6669,1.6667,1.6662,1.6659,1.6658,1.6659,1.6658,1.6657,1.6657,1.666,1.666,1.666,1.666,1.666,1.6657,1.6657,1.6657,1.6656,0,1.6693,1.6695,1.6698,1.6695,1.6695,1.6697,1.669,1.669,1.6685,1.6681,1.6679,1.6675,1.6671,1.667,1.6666,1.6667,1.6665,1.6661,1.6656,1.6661,1.6661,1.6661,1.6657,1.6657,1.6657,1.6657,0,0,1.6715,1.6707,1.6709,1.6705,1.6701,1.6701,1.67,1.6697,1.6695,1.6692,1.669,1.6687,1.6682,1.6679,1.6674,1.6673,1.6674,1.6668,1.6668,1.6668,1.6671,1.6673,1.6673,1.6671,1.6671,1.6671,1.667,0,1.6725,1.6727,1.6721,1.6723,1.6722,1.6713,1.6712,1.6708,1.6703,1.67,1.6694,1.6691,1.6686,1.6684,1.6682,1.6675,1.6674,1.6675,1.6666,1.6666,1.6667,1.6673,1.6676,1.6677,1.667,1.667,1.667,0,1.6739,1.6736,1.6737,1.6729,1.6728,1.6728,1.6722,1.672,1.6713,1.6709,1.6704,1.6698,1.6694,1.669,1.6683,1.6683,1.6679,1.6674,1.6674,1.6673,1.6668,1.667,1.6677,1.6677,1.6671,1.6671,1.6671,0,1.6751,1.6748,1.6747,1.6745,1.6736,1.6735,1.6731,1.6724,1.6721,1.6715,1.6712,1.6706,1.6702,1.6695,1.6686,1.6684,1.6679,1.6675,1.6673,1.6673,1.6673,1.6673,1.6677,1.6672,1.6672,1.6672,1.6672,0,1.6763,1.6763,1.6752,1.6752,1.6751,1.6743,1.6742,1.6736,1.6729,1.6726,1.6717,1.6714,1.6703,1.6697,1.6689,1.6682,1.6681,1.6676,1.6674,1.6676,1.6677,1.6673,1.6672,1.6672,1.6672,1.6672,1.6672,0,1.6777,1.677,1.6768,1.6759,1.6756,1.6756,1.6747,1.6744,1.6738,1.6733,1.6731,1.672,1.6713,1.6703,1.6692,1.6687,1.668,1.6678,1.6683,1.6681,1.668,1.668,1.6682,1.6681,1.6677,1.6677,1.6677,0,1.6784,1.6784,1.6774,1.6772,1.6768,1.6764,1.676,1.6751,1.6746,1.6736,1.6734,1.6726,1.6719,1.6706,1.6696,1.6687,1.6683,1.6684,1.6682,1.6683,1.6681,1.668,1.6679,1.6685,1.6685,1.6685,1.6685,0,1.6797,1.6793,1.6789,1.6782,1.6777,1.6772,1.6765,1.6763,1.6752,1.6747,1.6739,1.6734,1.6721,1.6712,1.6701,1.6694,1.6687,1.6686,1.6685,1.6687,1.6689,1.6686,1.6683,1.6686,1.6686,1.6686,1.6686,1.6686,1.6807,1.6805,1.6797,1.6791,1.6785,1.6779,1.6775,1.6767,1.6761,1.6751,1.6745,1.6737,1.6726,1.671,1.6703,1.6694,1.6692,1.6691,1.669,1.669,1.669,1.6691,1.6692,1.6692,1.6692,1.6692,1.6692,0,1.6817,1.6811,1.6806,1.6797,1.6791,1.6785,1.6777,1.6772,1.6765,1.6756,1.6749,1.6738,1.6728,1.6716,1.6704,1.6699,1.6695,1.6697,1.6696,1.6694,1.6694,1.6695,1.67,1.67,1.67,1.67,1.67,1.67,1.6822,1.6818,1.6812,1.6804,1.6797,1.6789,1.6784,1.6777,1.6769,1.6758,1.675,1.6742,1.6731,1.6718,1.6707,1.6704,1.6699,1.6701,1.6696,1.6695,1.6695,1.6694,1.6695,1.67,1.67,1.6697,1.6697,1.6697]}]]